Location: Framzelle
(50.8644°N, 1.5922°E)
Time: 07:35:23
(UTC+00:00)

Daily predictions for brighter satellites

Satellite Brightness Start Highest point End
(mag) Time Altitude Azimuth Time Altitude Azimuth Time Altitude Azimuth
Meteor 1-12 Rocket 4.5 20:31:19 10° NNW 20:36:59 77° W 20:42:40 10° S
MetOp-B 4.2 20:33:49 10° SSE 20:39:11 88° ENE 20:44:35 10° NNW
STARLINK-1219 4.0 20:35:38 10° W 20:39:47 70° N 20:43:56 10° ENE
STARLINK-1073 3.7 20:36:21 10° WNW 20:40:30 77° SSW 20:44:38 10° ESE
SL-8 R/B 3.9 20:35:53 10° W 20:40:36 56° SSW 20:45:19 10° ESE
Cosmos 2279 Rocket 4.1 20:35:24 10° N 20:41:42 86° W 20:47:54 10° S
STARLINK-1192 3.6 20:37:57 10° SW 20:42:04 66° SSE 20:46:11 10° ENE
Cosmos 1850 Rocket 4.2 20:37:38 10° NNW 20:43:01 77° WSW 20:48:20 10° SSE
ATLAS CENTAUR R/B 3.2 20:42:45 10° WNW 20:44:21 18° NNW 20:45:45 10° NE
STARLINK-1211 4.0 20:40:39 10° W 20:44:47 69° N 20:48:56 10° ENE
STARLINK-1121 3.7 20:41:20 10° WNW 20:45:28 73° SSW 20:49:36 10° ESE
Cosmos 371 Rocket 3.3 20:41:03 10° SSW 20:45:55 86° ESE 20:50:50 10° NNE
STARLINK-1244 3.6 20:42:53 10° WSW 20:47:01 70° SSE 20:51:09 10° ENE
SL-4 R/B 4.2 20:45:35 10° SSE 20:47:07 11° SE 20:48:39 10° ESE
Cosmos 2151 Rocket 3.9 20:43:56 10° NNW 20:48:30 75° W 20:53:00 10° S
Abrixas rocket 3.0 20:46:26 10° W 20:49:06 31° SSW 20:51:45 10° SE
Terra 2.9 20:44:58 10° SE 20:49:12 33° ENE 20:53:26 10° N
STARLINK-1245 4.0 20:45:38 10° W 20:49:46 68° N 20:53:55 10° ENE
Spot 2 Rocket 3.5 20:45:16 10° SSE 20:50:19 89° ENE 20:55:24 10° NNW
STARLINK-1106 3.7 20:46:20 10° WNW 20:50:28 69° SSW 20:54:34 10° ESE
SPOT 1/Viking Rocket 3.7 20:46:05 10° SSE 20:51:12 69° ENE 20:56:20 10° N
ERBS 3.2 20:48:06 10° WSW 20:51:21 53° NNW 20:54:38 10° NE
STARLINK-1138 3.6 20:47:51 10° WSW 20:52:00 73° SSE 20:56:08 10° ENE
CARTOSAT-1 4.1 20:48:13 10° SE 20:52:20 45° ENE 20:56:28 10° N
STARLINK-1234 3.5 20:49:30 10° WNW 20:52:46 60° N 20:56:00 10° E
STARLINK-1233 4.0 20:50:36 10° W 20:54:44 67° N 20:58:52 10° ENE
STARLINK-1112 3.7 20:51:17 10° WNW 20:55:24 66° SSW 20:59:31 10° SE
STARLINK-1143 3.6 20:52:48 10° WSW 20:56:57 77° SSE 21:01:06 10° ENE
Aureole 2 4.1 20:54:26 10° NNW 20:57:39 89° WSW 21:00:36 10° SSE
STARLINK-1209 3.5 20:55:29 10° WNW 20:58:45 62° N 21:02:02 10° E
STARLINK-1204 4.1 20:55:36 10° W 20:59:44 66° N 21:03:52 10° ENE
STARLINK-1128 3.8 20:56:16 10° WNW 21:00:22 62° SSW 21:04:28 10° SE
STARLINK-1241 3.6 20:57:49 10° WSW 21:01:58 80° SSE 21:06:07 10° ENE
deb Kosmos-1763 4.2 20:59:43 10° NNW 21:03:19 71° WSW 21:06:54 10° SSE
STARLINK-1238 4.1 21:00:37 10° W 21:04:45 65° N 21:08:53 10° ENE
Cosmos 1331 Rocket 4.3 21:00:01 10° S 21:04:55 46° ESE 21:09:53 10° NE
STARLINK-1113 3.8 21:01:15 10° WNW 21:05:21 59° SSW 21:09:15 11° SE
Aureole 2 Rocket 2.0 21:02:34 10° SSW 21:05:37 63° ESE 21:08:33 10° NNE
Cosmos 1733 4.2 21:02:50 10° N 21:06:21 34° ENE 21:09:32 12° SE
STARLINK-1239 3.6 21:02:46 10° WSW 21:06:56 84° SSE 21:11:05 10° ENE
STARLINK-1201 4.1 21:05:36 10° W 21:09:44 64° N 21:13:52 10° E
STARLINK-1119 3.9 21:06:16 10° WNW 21:10:20 55° SSW 21:14:04 12° SE
Cosmos 1437 Rocket 2.9 21:06:54 10° SSW 21:10:41 76° WNW 21:14:32 10° N
STARLINK-1240 3.6 21:07:44 10° WSW 21:11:53 87° SSE 21:16:03 10° ENE
Cosmos 1378 3.6 21:09:44 10° SSE 21:13:16 43° E 21:16:49 10° NNE
ISS -1.2 21:13:44 10° WSW 21:14:41 11° SW 21:15:37 10° SSW
STARLINK-1206 4.1 21:10:37 10° W 21:14:44 64° N 21:18:52 10° E
STARLINK-1114 3.9 21:11:14 10° WNW 21:15:16 52° SSW 21:18:49 13° SE
STARLINK-1203 3.7 21:12:32 10° WSW 21:16:46 89° NNE 21:20:59 10° ENE
STARLINK-1216 3.6 21:12:42 10° WSW 21:16:52 90° NNE 21:21:01 10° ENE
USA 215 4.0 21:10:46 10° E 21:17:08 56° N 21:23:30 10° WNW
Cosmos 304 Rocket 3.7 21:12:31 10° SSW 21:17:18 82° ESE 21:22:08 10° NNE
Lacrosse 5 3.8 21:13:59 10° W 21:17:31 19° SW 21:21:02 10° S
NOSS 8 (E) 4.3 21:15:28 10° SW 21:18:36 77° NW 21:21:42 10° NE
STARLINK-1205 4.1 21:15:36 10° W 21:19:43 63° N 21:23:51 10° E
STARLINK-1130 (DARKSAT) 4.0 21:16:13 10° WNW 21:20:15 49° SSW 21:23:37 14° SE
Cosmos 1092 Rocket 4.3 21:15:44 10° SSE 21:21:37 51° E 21:27:33 10° NNE
NOSS 2-2 (D) 3.4 21:18:25 10° SSW 21:21:50 45° SE 21:25:42 10° NE
STARLINK-1237 3.6 21:17:41 10° WSW 21:21:51 87° NNW 21:26:01 10° ENE
CENTAUR R/B 3.4 21:14:27 10° NW 21:22:12 67° NE 21:30:52 10° ESE
CZ-2C R/B 4.5 21:17:31 10° N 21:22:33 35° WNW 21:27:35 10° SW
STARLINK-1218 4.1 21:20:36 10° W 21:24:44 63° N 21:28:52 10° E
STARLINK-1084 4.1 21:21:14 10° WNW 21:25:12 46° SSW 21:28:24 15° SE
ATLAS 3B R/B 3.7 21:19:00 10° NW 21:25:22 42° NNE 21:31:55 10° E
Cosmos 1674 Rocket 4.0 21:21:32 10° SSW 21:25:52 65° WNW 21:30:18 10° N
SL-27 R/B 3.1 21:23:17 10° NNW 21:26:47 45° ENE 21:29:28 15° SE
STARLINK-1202 3.7 21:22:40 10° WSW 21:26:50 84° NNW 21:31:00 10° ENE
NOSS 3-2 (C) 4.2 21:20:14 10° NW 21:27:32 74° NE 21:35:37 11° SE
Cosmos 1378 Rocket 3.7 21:24:20 10° SSW 21:28:44 78° W 21:33:09 10° N
Cosmos 1766 3.3 21:25:27 10° N 21:29:27 77° E 21:32:47 14° SSE
STARLINK-1254 4.1 21:25:35 10° W 21:29:43 63° N 21:33:51 10° E
STARLINK-1098 4.2 21:26:13 10° WNW 21:30:10 43° SSW 21:33:11 16° SE
Cosmos 1867 4.4 21:27:18 10° NW 21:32:35 46° NE 21:37:49 10° ESE
STARLINK-1231 4.1 21:30:34 10° W 21:34:42 63° N 21:38:49 10° E
STARLINK-1123 4.3 21:31:12 10° WNW 21:35:06 41° SSW 21:37:57 17° SSE
STARLINK-1246 3.8 21:32:39 10° WSW 21:36:49 79° NNW 21:40:59 10° ENE
Cosmos 1943 Rocket 2.4 21:32:48 10° S 21:38:08 51° ESE 21:43:35 10° NE
Cosmos 2297 3.8 21:32:33 10° SSW 21:38:15 83° WNW 21:44:02 10° NNE
NOSS 2-2 (E) 3.1 21:35:27 10° SW 21:39:04 80° SE 21:43:19 10° NE
STARLINK-1232 4.1 21:35:35 10° W 21:39:42 64° N 21:43:50 10° E
STARLINK-1097 4.4 21:36:14 10° WNW 21:40:06 38° SW 21:42:45 17° SSE
Cosmos 2082 Rocket 4.1 21:37:19 10° NW 21:41:42 23° WSW 21:46:03 10° SSW
STARLINK-1224 3.8 21:37:38 10° W 21:41:48 77° NNW 21:45:57 10° ENE
SeaSat 1 4.0 21:39:30 10° ENE 21:42:44 17° ESE 21:44:34 14° SE
STARLINK-1208 4.1 21:40:33 10° W 21:44:41 64° N 21:48:48 10° E
STARLINK-1099 4.5 21:41:13 10° WNW 21:45:01 36° SW 21:47:31 18° SSE
Cosmos 1461 3.6 21:42:08 10° SW 21:46:17 59° NW 21:50:41 10° NE
STARLINK-1225 3.8 21:42:38 10° W 21:46:48 74° NNW 21:50:57 10° ENE
STARLINK-1212 2.9 21:44:52 10° WNW 21:47:59 77° NNE 21:50:47 12° ESE
Cosmos 1975 Rocket 3.2 21:44:36 14° S 21:48:15 62° E 21:52:37 10° NNE
STARLINK-1105 2.9 21:45:20 10° WNW 21:48:27 77° NNE 21:51:13 12° ESE
STARLINK-1247 2.9 21:46:12 10° WNW 21:49:20 78° NNE 21:52:06 13° ESE
STARLINK-1271 4.0 21:45:34 10° WNW 21:49:42 65° N 21:53:50 10° E
STARLINK-1227 2.9 21:46:42 10° WNW 21:49:50 78° NNE 21:52:32 13° ESE
BREEZE-M DEB (TANK) 3.9 21:34:33 10° WSW 21:50:31 61° SSE 21:54:38 10° E
STARLINK-1226 2.9 21:47:34 10° WNW 21:50:41 79° NNE 21:53:24 13° ESE
BREEZE-M DEB (TANK) 2.8 21:47:02 10° W 21:51:24 75° S 21:54:59 10° E
STARLINK-1215 2.9 21:48:27 10° WNW 21:51:35 80° NNE 21:54:16 13° ESE
Cosmos 292 Rocket 4.4 21:48:20 16° SSE 21:51:37 38° ESE 21:56:07 10° NE
STARLINK-1230 3.9 21:47:37 10° W 21:51:46 73° N 21:55:55 10° ENE
STARLINK-1217 2.9 21:50:16 10° WNW 21:53:24 81° NNE 21:56:00 14° ESE
STARLINK-1229 2.9 21:51:11 10° WNW 21:54:19 82° NNE 21:56:54 14° ESE
Cosmos 2369 Rocket 2.5 21:49:04 11° S 21:54:21 50° ESE 21:59:47 10° NE
STARLINK-1154 4.0 21:50:33 10° WNW 21:54:41 65° N 21:58:49 10° E
STARLINK-1270 2.9 21:52:04 10° WNW 21:55:13 82° NNE 21:57:46 15° ESE
STARLINK-1243 3.9 21:52:37 10° W 21:56:46 71° N 22:00:55 10° ENE
STARLINK-1189 2.9 21:53:52 10° WNW 21:57:00 84° NNE 21:59:29 15° ESE
Aureole 3 Rocket 4.4 21:51:19 10° N 21:57:18 67° ENE 22:03:54 17° SSE
STARLINK-1188 2.8 21:54:47 10° WNW 21:57:55 84° NNE 22:00:22 15° ESE
SPOT 5 3.6 21:53:31 12° S 21:58:14 54° W 22:03:31 10° NNW
STARLINK-1187 2.8 21:55:53 10° WNW 21:59:00 90° SW 22:01:14 17° ESE
STARLINK-1197 4.0 21:55:31 10° WNW 21:59:39 66° N 22:03:48 10° E
Cosmos 1340 Rocket 4.4 21:56:33 10° N 21:59:56 24° ENE 22:02:31 14° ESE
ATLAS CENTAUR R/B 3.1 21:59:35 16° ESE 22:00:05 16° ESE 22:02:44 10° ENE
STARLINK-1191 2.8 21:57:13 10° WNW 22:00:21 86° NNE 22:02:39 17° ESE
STARLINK-1221 2.8 21:58:11 10° WNW 22:01:17 87° NNE 22:03:34 17° ESE
STARLINK-1236 3.9 21:57:36 10° W 22:01:45 69° N 22:05:54 10° ENE
STARLINK-1222 2.8 21:59:02 10° WNW 22:02:09 88° NNE 22:04:23 17° ESE
STARLINK-1214 2.8 21:59:55 10° WNW 22:03:03 88° NE 22:05:15 18° ESE
NOSS 2-2 (C) 3.3 22:00:06 10° SW 22:03:42 79° NW 22:07:54 10° NE
Thor Agena Rocket 4.3 21:59:07 10° NNE 22:04:02 37° E 22:07:11 19° SSE
ERS-1 Rocket 4.0 21:59:40 11° SSW 22:04:17 41° W 22:09:03 10° NNW
EXPRESS MD2 3.9 22:00:55 10° WSW 22:04:37 68° SSE 22:12:11 10° E
STARLINK-1198 4.0 22:00:30 10° WNW 22:04:39 67° N 22:08:47 10° E
Cosmos 1025 Rocket 3.9 22:02:58 20° SE 22:05:13 33° E 22:09:06 10° NNE
Okean 2 3.5 22:02:00 14° SSW 22:05:35 80° W 22:09:47 10° N
Cosmos 2026 Rocket 4.0 22:00:23 13° S 22:06:01 79° E 22:12:25 10° NNE
BREEZE M DEB (TANK) 2.1 22:03:23 10° WSW 22:07:04 51° S 22:08:33 17° E
Cosmos 1553 Rocket 4.1 22:00:53 10° N 22:07:10 67° ENE 22:11:43 19° SSE
ATLAS 2AS CENTAUR R/B 3.5 22:00:30 11° S 22:07:37 42° ESE 22:14:56 10° NE
Cosmos 1656 Rocket 4.4 22:04:50 19° SSE 22:08:06 34° ESE 22:13:05 10° NE
BREEZE-M DEB (TANK) 4.5 21:52:10 10° WNW 22:08:19 66° SSW 22:11:56 16° SE
Cosmos 1953 3.5 22:04:48 10° N 22:08:26 32° ENE 22:10:41 18° ESE
NOSS 3-2 (A) 4.3 22:01:32 10° NW 22:08:50 59° SW 22:15:11 18° SSE
STARLINK-1228 3.1 22:05:23 10° WNW 22:08:52 75° SSW 22:11:08 20° ESE
Cosmos 1470 2.8 22:05:46 10° N 22:09:39 68° ENE 22:11:51 24° SSE
STARLINK-1199 3.9 22:05:31 10° WNW 22:09:39 69° N 22:13:48 10° E
STARLINK-1235 2.9 22:08:06 10° WNW 22:11:20 74° SSW 22:13:12 23° ESE
STARLINK-1269 4.0 22:07:36 10° W 22:11:44 67° N 22:15:53 10° ENE
APEX 4.5 22:06:47 12° S 22:12:26 52° ESE 22:17:34 10° NE
Cosmos 968 Rocket 3.4 22:08:53 10° NNW 22:14:06 89° ENE 22:17:31 21° SSE
STARLINK-1210 3.9 22:10:29 10° WNW 22:14:38 70° N 22:18:47 10° E
Cosmos 1455 Rocket 3.2 22:12:12 10° NNW 22:16:32 67° W 22:19:25 20° S
STARLINK-1200 4.0 22:12:34 10° W 22:16:43 66° N 22:20:51 10° ENE
Cosmos 1655 Rocket 4.5 22:15:01 19° SSE 22:19:10 47° E 22:25:08 10° NNE
STARLINK-1219 3.8 22:15:28 10° WNW 22:19:37 71° NNE 22:23:45 10° E
USA 238 DEB 4.3 22:13:46 10° NW 22:20:39 50° WSW 22:25:51 19° S
SL-4 R/B 2.9 22:20:18 14° E 22:20:43 14° ENE 22:22:02 10° NNE
USA 238 4.3 22:13:52 10° NW 22:20:45 50° WSW 22:25:58 19° S
STARLINK-1192 4.0 22:17:35 10° W 22:21:43 65° N 22:25:51 10° ENE
ATLAS 5 CENTAUR R/B 2.7 22:21:46 25° SE 22:21:51 25° SE 22:24:04 10° E
Cosmos 1758 3.3 22:19:04 10° N 22:23:09 83° E 22:25:25 26° SSE
STARLINK-1211 3.8 22:20:28 10° WNW 22:24:38 73° NNE 22:28:46 10° E
SL-4 R/B 2.8 22:21:23 10° SW 22:25:53 41° SSE 22:30:26 10° ENE
STARLINK-1244 4.1 22:22:34 10° W 22:26:42 64° N 22:30:50 10° ENE
Terra 2.9 22:23:15 14° SSW 22:26:53 38° W 22:31:21 10° NNW
Cosmos 1842 3.7 22:24:07 16° SSW 22:27:09 60° WNW 22:31:01 10° N
STARLINK-1234 3.1 22:25:52 10° WNW 22:29:05 56° SSW 22:30:17 33° SE
STARLINK-1245 3.8 22:25:26 10° WNW 22:29:35 75° NNE 22:33:45 10° E
STARLINK-1138 4.1 22:27:34 10° W 22:31:42 64° N 22:35:50 10° E
Cosmos 1503 Rocket 4.0 22:28:54 10° NNW 22:34:15 87° WSW 22:37:35 24° SSE
STARLINK-1233 3.7 22:30:24 10° WNW 22:34:33 77° NNE 22:38:43 10° E
STARLINK-1209 3.2 22:32:04 10° WNW 22:35:15 50° SSW 22:36:13 36° SSE
STARLINK-1143 4.1 22:32:32 10° W 22:36:39 64° N 22:40:48 10° E
Cosmos 2266 Rocket 4.4 22:33:43 21° SSE 22:37:25 47° E 22:43:10 10° NNE
STARLINK-1204 3.7 22:35:23 10° WNW 22:39:33 80° NNE 22:43:42 10° ESE
Meteor 2-8 Rocket 4.4 22:33:51 10° N 22:40:03 85° E 22:44:07 23° SSE
SJ 16-02 4.1 22:39:54 10° NNE 22:41:39 12° NE 22:43:23 10° ENE
STARLINK-1241 4.1 22:37:34 10° W 22:41:42 63° N 22:45:50 10° E
Cosmos 2263 4.1 22:39:18 14° SSW 22:44:10 82° ESE 22:49:49 10° NNE
STARLINK-1238 3.6 22:40:24 10° WNW 22:44:34 82° NNE 22:48:43 10° ESE
STARLINK-1239 4.1 22:42:33 10° W 22:46:41 63° N 22:50:48 10° E
Cosmos 1536 Rocket 3.5 22:45:44 27° S 22:48:04 77° E 22:52:27 10° NNE
Cosmos 1674 4.0 22:48:20 23° ESE 22:49:31 27° E 22:52:46 10° NNE
STARLINK-1201 3.6 22:45:22 10° WNW 22:49:32 85° NNE 22:53:33 11° ESE
STARLINK-1240 4.1 22:47:31 10° W 22:51:39 63° N 22:55:47 10° E
Cosmos 1271 Rocket 2.9 22:49:29 24° SSW 22:51:43 71° WNW 22:55:40 10° N
Cosmos 1242 Rocket 3.4 22:49:25 18° SW 22:51:52 47° WNW 22:55:27 10° N
Cosmos 1544 Rocket 4.5 22:49:10 10° NNW 22:53:13 39° W 22:55:47 20° SSW
Cosmos 1354 Rocket 4.1 22:48:16 10° NNW 22:53:33 69° WSW 22:56:35 26° S
STARLINK-60 2.8 22:52:21 18° SW 22:54:29 59° SSE 22:57:38 10° ENE
STARLINK-1206 3.6 22:50:22 10° WNW 22:54:32 88° NNE 22:58:20 12° ESE
Spot 4 3.9 22:53:29 26° S 22:56:13 72° WSW 23:01:06 10° NNW
COSMOS 2455 3.1 22:52:50 23° S 22:56:21 49° ESE 23:02:08 10° NE
STARLINK-1216 4.1 22:52:30 10° W 22:56:38 64° N 23:00:46 10° E
STARLINK-1203 4.1 22:52:35 10° W 22:56:46 64° N 23:00:58 10° E
STARLINK-1205 3.5 22:55:20 10° WNW 22:59:30 89° SSW 23:03:06 13° ESE
USA 215 3.2 22:53:22 10° ESE 22:59:58 89° SSW 23:06:33 10° WNW
Cosmos 2297 Rocket 3.8 22:55:40 10° NNW 23:00:39 31° NE 23:05:37 10° ESE
STARLINK-1237 4.1 22:57:30 10° W 23:01:38 64° N 23:05:46 10° E
Cosmos 1707 2.9 22:59:44 26° SSW 23:01:47 67° WNW 23:05:41 10° N
Helios 1A 3.8 23:01:35 22° SE 23:03:53 42° ENE 23:07:51 10° N
Lacrosse 4 Rocket 4.2 23:01:16 10° N 23:04:02 16° NNE 23:06:44 10° ENE
STARLINK-1218 3.5 23:00:20 10° WNW 23:04:30 86° SSW 23:07:54 15° ESE
Cosmos 1726 2.2 23:02:10 10° NNW 23:05:53 71° W 23:07:20 35° S
STARLINK-1202 4.0 23:02:30 10° WNW 23:06:38 64° N 23:10:46 10° E
Cosmos 1174 3.7 23:06:36 41° SSE 23:07:18 49° ESE 23:11:00 10° NE
Timation 2 Rocket 4.2 23:01:58 10° NNW 23:08:20 69° NE 23:12:54 19° SE
Cosmos 2058 Rocket 4.3 23:05:23 10° N 23:09:26 33° ENE 23:11:59 19° ESE
STARLINK-1254 3.5 23:05:18 10° WNW 23:09:28 83° SSW 23:12:40 16° ESE
COSMOS 2487 2.5 23:06:05 10° NNW 23:09:30 62° WSW 23:10:32 40° S
ALOS 2 2.6 23:07:47 30° SSE 23:09:56 83° ENE 23:14:22 10° NNW
CENTAUR R/B 3.7 23:05:21 10° NW 23:12:58 47° WSW 23:18:17 22° S
STARLINK-1231 3.5 23:10:16 10° WNW 23:14:26 79° SSW 23:17:27 18° ESE
Meteor 1-16 Rocket 4.2 23:09:16 10° NNW 23:14:48 76° W 23:17:49 27° S
Cosmos 1867 4.1 23:11:03 10° NW 23:16:14 45° WSW 23:18:45 27° S
ATLAS 3B R/B 2.7 23:09:46 10° NW 23:16:31 71° SW 23:21:09 23° SSE
STARLINK-1246 4.0 23:12:29 10° WNW 23:16:38 66° N 23:20:46 10° E
Meteor 2-5 Rocket 4.4 23:14:12 24° SSE 23:17:05 42° E 23:22:21 10° NNE
EO 1 Del DPAF 3.9 23:13:38 10° N 23:17:18 49° WNW 23:19:29 22° SW
STARLINK-1232 3.5 23:15:16 10° WNW 23:19:25 76° SSW 23:22:15 20° ESE
FALCON 9 DEB 3.9 23:20:07 33° SE 23:20:07 33° SE 23:22:48 10° E
Cosmos 1606 Rocket 3.6 23:15:17 10° N 23:19:38 72° E 23:21:36 31° SSE
Cosmos 1992 Rocket 4.3 23:16:13 16° SW 23:20:20 66° WNW 23:25:33 10° NNE
SeaSat 1 2.4 23:15:52 10° NNE 23:20:50 87° NW 23:24:20 20° SW
STARLINK-1224 4.0 23:17:28 10° WNW 23:21:37 67° N 23:25:45 10° E
Cosmos 1943 Rocket 3.6 23:17:01 10° WSW 23:22:07 36° NW 23:27:17 10° NNE
STARLINK-1212 4.2 23:20:52 10° W 23:22:54 25° WSW 23:22:54 25° WSW
STARLINK-1105 4.3 23:21:21 10° W 23:23:20 25° WSW 23:23:20 25° WSW
STARLINK-1208 3.5 23:20:14 10° WNW 23:24:22 72° SSW 23:27:00 22° ESE
STARLINK-29 2.9 23:24:02 51° S 23:24:23 55° SSE 23:27:32 10° ENE
Cosmos 2098 Rocket 4.4 23:20:08 24° S 23:24:47 73° E 23:32:15 10° NNE
STARLINK-1247 4.3 23:22:14 10° W 23:24:13 25° WSW 23:24:13 25° WSW
STARLINK-1227 4.3 23:22:43 10° W 23:24:39 24° WSW 23:24:39 24° WSW
STARLINK-1226 4.3 23:23:35 10° W 23:25:31 24° WSW 23:25:31 24° WSW
STARLINK-1225 3.9 23:22:28 10° WNW 23:26:37 68° N 23:30:45 10° E
ATLAS CENTAUR R/B 2.0 23:25:01 10° NW 23:26:55 39° NNE 23:30:00 10° E
STARLINK-1215 4.4 23:24:30 10° W 23:26:24 24° WSW 23:26:24 24° WSW
STARLINK-1217 4.4 23:26:19 10° W 23:28:07 23° WSW 23:28:07 23° WSW
STARLINK-1271 3.5 23:25:15 10° WNW 23:29:22 68° SSW 23:31:48 23° SE
NOSS 3-4 (A) 3.4 23:23:52 11° SW 23:29:44 88° NW 23:36:14 10° NE
NOSS 3-4 (C) 3.4 23:24:01 11° SW 23:29:50 89° NW 23:36:21 10° NE
STARLINK-1229 4.5 23:27:14 10° W 23:29:01 22° WSW 23:29:01 22° WSW
RESURS DK-1 2.9 23:29:48 34° SSE 23:31:00 43° ESE 23:34:57 10° NE
STARLINK-1230 3.9 23:27:27 10° WNW 23:31:36 69° N 23:35:44 10° E
Cosmos 2315 Rocket 4.0 23:27:03 10° NNW 23:33:17 80° W 23:36:59 26° S
STARLINK-1154 3.5 23:30:14 10° WNW 23:34:21 65° SSW 23:36:35 25° SE
Cosmos 2084 4.1 23:33:37 32° SSE 23:34:47 39° SE 23:38:57 10° ENE
BREEZE-M R/B 4.4 23:31:45 20° SSW 23:35:22 32° SSE 23:39:10 10° E
Cosmos 1340 Rocket 3.8 23:32:45 10° NNW 23:36:30 37° W 23:38:06 26° SW
STARLINK-1243 3.9 23:32:27 10° WNW 23:36:36 71° N 23:40:45 10° E
Cosmos 1626 3.2 23:36:00 27° SE 23:37:08 34° E 23:40:32 10° NNE
Cosmos 2227 Rocket 3.2 23:32:23 10° NNW 23:37:50 44° NE 23:43:14 10° ESE
Cosmos 2369 Rocket 3.6 23:33:20 10° WSW 23:38:33 37° NW 23:43:47 10° NNE
ATLAS CENTAUR R/B 1.4 23:35:43 21° SW 23:38:34 81° NW 23:42:39 10° NE
STARLINK-1197 3.6 23:35:11 10° WNW 23:39:17 61° SSW 23:41:20 27° SE
Okean 1-7 Rocket 4.2 23:37:39 28° SSE 23:39:34 45° E 23:43:55 10° NNE
Cosmos 1908 3.4 23:37:23 10° NNW 23:41:10 61° W 23:42:29 37° SSW
STARLINK-1236 3.8 23:37:25 10° WNW 23:41:35 73° NNE 23:45:43 10° E
Aureole 3 3.7 23:40:55 10° NNW 23:43:54 33° W 23:44:31 30° WSW
STARLINK-1198 3.6 23:40:10 10° WNW 23:44:15 58° SSW 23:46:07 29° SE
Cosmos 1953 3.8 23:41:23 10° NNW 23:44:43 26° W 23:46:22 20° SW
STARLINK-1199 3.7 23:45:11 10° WNW 23:49:14 55° SSW 23:50:55 31° SSE
SL-4 R/B 3.1 23:50:08 15° W 23:50:08 15° W 23:51:05 10° NW
Landsat 4 3.8 23:46:07 10° NNE 23:49:48 62° ESE 23:51:00 39° SSE
Cosmos 1656 Rocket 4.4 23:46:09 10° SW 23:51:32 49° NW 23:56:57 10° NNE
STARLINK-1269 3.7 23:47:24 10° WNW 23:51:34 77° NNE 23:55:43 10° E
KORONAS-FOTON 4.0 23:52:25 33° SSW 23:53:56 64° WNW 23:57:47 10° N
STARLINK-1210 3.7 23:50:09 10° WNW 23:54:11 51° SSW 23:55:41 33° SSE
